| time (UTC) | temp F | wind direction | speed knots | gust knots | rain 1hr in | rain 24hr in | rain mn in | humidity % | barometer mb |
| 20260509201346 | 64 | 270 | 11.3 | 11.3 | 0.00 | 0.10 | 0.10 | 58 | 1010.0 |
| 20260509200443 | 0 | 0 | 0.0 | 0.0 | 0.00 | 0.10 | 0.00 | 100 | |
| 20260509195444 | 0 | 0 | 0.0 | 0.0 | 0.00 | 0.10 | 0.00 | 100 | |
| 20260509194429 | 0 | 0 | 0.0 | 0.0 | 0.00 | 0.10 | 0.00 | 100 | |
| 20260509193428 | 0 | 0 | 0.0 | 0.0 | 0.00 | 0.10 | 0.00 | 100 | |
| 20260509192427 | 0 | 0 | 0.0 | 0.0 | 0.00 | 0.10 | 0.00 | 100 | |
| 20260509191444 | 0 | 0 | 0.0 | 0.0 | 0.00 | 0.10 | 0.00 | 100 | |
| 20260509191328 | 0 | 0 | 0.0 | 0.0 | 0.00 | 0.10 | 0.00 | 100 | |
| 20260509190343 | 59 | 270 | 5.2 | 5.2 | 0.00 | 0.10 | 0.10 | 70 | 1011.2 |
| 20260509190228 | 59 | 270 | 5.2 | 5.2 | 0.00 | 0.10 | 0.10 | 70 | 1011.2 |
| 20260509190145 | 59 | 270 | 5.2 | 5.2 | 0.00 | 0.10 | 0.10 | 70 | 1011.2 |
| 20260509185227 | 0 | 0 | 0.0 | 0.0 | 0.00 | 0.10 | 0.00 | 100 | |
| 20260509184227 | 0 | 0 | 0.0 | 0.0 | 0.00 | 0.10 | 0.00 | 100 | |
| 20260509183226 | 58 | 225 | 5.2 | 5.2 | 0.01 | 0.10 | 0.10 | 72 | 1011.3 |
| 20260509182227 | 58 | 225 | 2.6 | 2.6 | 0.01 | 0.10 | 0.10 | 72 | 1011.2 |
| 20260509182129 | 58 | 236 | 2.6 | 3.5 | 0.01 | 0.10 | 0.10 | 73 | 1011.2 |
| 20260509181129 | 0 | 0 | 0.0 | 0.0 | 0.01 | 0.10 | 0.00 | 100 | |
| 20260509180126 | 57 | 270 | 0.9 | 0.9 | 0.01 | 0.10 | 0.10 | 75 | 1011.3 |
| 20260509175142 | 57 | 225 | 1.7 | 2.6 | 0.01 | 0.10 | 0.10 | 78 | 1011.3 |
| 20260509174127 | 57 | 270 | 0.9 | 0.9 | 0.01 | 0.10 | 0.10 | 78 | 1011.3 |
| 20260509173225 | 57 | 270 | 2.6 | 2.6 | 0.01 | 0.09 | 0.09 | 81 | 1011.3 |
| 20260509172242 | 0 | 0 | 0.0 | 0.0 | 0.01 | 0.09 | 0.00 | 100 | |
| 20260509170326 | 56 | 202 | 0.9 | 0.9 | 0.01 | 0.09 | 0.09 | 82 | 1010.9 |
| 20260509165329 | 56 | 225 | 2.6 | 2.6 | 0.01 | 0.09 | 0.09 | 83 | 1010.8 |
| 20260509164426 | 56 | 261 | 5.2 | 7.8 | 0.02 | 0.09 | 0.09 | 85 | 1010.9 |
| 20260509163427 | 55 | 247 | 0.9 | 1.7 | 0.01 | 0.08 | 0.08 | 88 | 1010.8 |
| 20260509162526 | 54 | 247 | 0.0 | 0.9 | 0.01 | 0.08 | 0.08 | 89 | 1010.6 |
| 20260509161626 | 54 | 244 | 2.6 | 3.5 | 0.01 | 0.08 | 0.08 | 90 | 1010.6 |
| 20260509155628 | 52 | 202 | 1.7 | 3.5 | 0.02 | 0.08 | 0.08 | 91 | 1010.5 |
| 20260509154627 | 52 | 180 | 1.7 | 2.6 | 0.02 | 0.08 | 0.07 | 90 | 1010.2 |
| 20260509153628 | 51 | 202 | 1.7 | 2.6 | 0.01 | 0.07 | 0.07 | 91 | 1010.1 |
| 20260509150726 | 51 | 202 | 2.6 | 3.5 | 0.01 | 0.07 | 0.07 | 91 | 1010.5 |
| 20260509145726 | 51 | 180 | 0.0 | 2.6 | 0.01 | 0.06 | 0.06 | 92 | 1010.8 |
| 20260509145627 | 51 | 180 | 2.6 | 2.6 | 0.01 | 0.06 | 0.06 | 91 | 1010.7 |
| 20260509144627 | 0 | 0 | 0.0 | 0.0 | 0.01 | 0.06 | 0.00 | 100 | |
| 20260509142642 | 0 | 0 | 0.0 | 0.0 | 0.02 | 0.06 | 0.00 | 100 | |
| 20260509141729 | 51 | 180 | 1.7 | 1.7 | 0.02 | 0.06 | 0.06 | 90 | 1010.7 |
| 20260509140745 | 51 | 202 | 1.7 | 1.7 | 0.02 | 0.06 | 0.06 | 90 | 1010.8 |
| 20260509135728 | 51 | 202 | 1.7 | 1.7 | 0.02 | 0.05 | 0.05 | 90 | 1010.8 |
| 20260509134726 | 51 | 202 | 2.6 | 2.6 | 0.02 | 0.05 | 0.05 | 90 | 1010.9 |
| 20260509133727 | 51 | 225 | 0.0 | 0.0 | 0.02 | 0.05 | 0.05 | 90 | 1011.1 |
| 20260509132727 | 51 | 225 | 1.7 | 3.5 | 0.02 | 0.05 | 0.04 | 91 | 1011.1 |
| 20260509131627 | 50 | 225 | 0.0 | 0.0 | 0.02 | 0.04 | 0.04 | 90 | 1011.1 |
| 20260509130628 | 50 | 225 | 0.0 | 0.0 | 0.01 | 0.03 | 0.03 | 90 | 1011.1 |
| 20260509130544 | 50 | 225 | 0.0 | 0.0 | 0.01 | 0.03 | 0.03 | 90 | 1011.1 |
| 20260509125628 | 50 | 247 | 0.9 | 0.9 | 0.01 | 0.03 | 0.03 | 90 | 1011.2 |
| 20260509123628 | 50 | 202 | 1.7 | 2.6 | 0.01 | 0.03 | 0.03 | 90 | 1011.2 |
| 20260509122626 | 50 | 202 | 1.7 | 1.7 | 0.02 | 0.03 | 0.03 | 91 | 1011.3 |
| 20260509121629 | 50 | 202 | 1.7 | 2.6 | 0.01 | 0.02 | 0.02 | 91 | 1011.3 |
| 20260509121527 | 50 | 202 | 0.9 | 1.7 | 0.01 | 0.02 | 0.02 | 90 | 1011.2 |
| 20260509115527 | 50 | 202 | 1.7 | 1.7 | 0.01 | 0.02 | 0.02 | 89 | 1011.2 |
| 20260509113627 | 50 | 202 | 0.9 | 0.9 | 0.02 | 0.02 | 0.02 | 89 | 1011.2 |
| 20260509112626 | 50 | 202 | 0.9 | 0.9 | 0.01 | 0.01 | 0.01 | 89 | 1011.1 |
| 20260509110616 | 50 | 202 | 0.9 | 0.9 | 0.01 | 0.01 | 0.01 | 88 | 1011.1 |
| 20260509105615 | 50 | 202 | 1.7 | 1.7 | 0.01 | 0.01 | 0.01 | 88 | 1011.2 |
| 20260509104712 | 50 | 202 | 0.9 | 0.9 | 0.01 | 0.01 | 0.01 | 88 | 1010.9 |
| 20260509104629 | 50 | 202 | 0.9 | 1.7 | 0.01 | 0.01 | 0.01 | 88 | 1011.0 |
| 20260509103614 | 50 | 202 | 0.9 | 0.9 | 0.00 | 0.00 | 0.00 | 88 | 1011.1 |
| 20260509102614 | 50 | 202 | 1.7 | 1.7 | 0.00 | 0.00 | 0.00 | 87 | 1011.2 |
| 20260509101713 | 0 | 0 | 0.0 | 0.0 | 0.00 | 0.00 | 0.00 | 100 | |
| 20260509100715 | 0 | 0 | 0.0 | 0.0 | 0.00 | 0.00 | 0.00 | 100 | |
| 20260509100628 | 0 | 0 | 0.0 | 0.0 | 0.00 | 0.00 | 0.00 | 100 | |
| 20260509095713 | 0 | 0 | 0.0 | 0.0 | 0.00 | 0.00 | 0.00 | 100 | |
| 20260509094812 | 0 | 0 | 0.0 | 0.0 | 0.00 | 0.00 | 0.00 | 100 | |
| 20260509092828 | 0 | 0 | 0.0 | 0.0 | 0.00 | 0.00 | 0.00 | 100 | |
| 20260509091828 | 0 | 0 | 0.0 | 0.0 | 0.00 | 0.00 | 0.00 | 100 | |
| 20260509090915 | 0 | 0 | 0.0 | 0.0 | 0.00 | 0.00 | 0.00 | 100 | |
| 20260509085928 | 0 | 0 | 0.0 | 0.0 | 0.00 | 0.00 | 0.00 | 100 | |
| 20260509085015 | 0 | 0 | 0.0 | 0.0 | 0.00 | 0.00 | 0.00 | 100 | |
| 20260509084913 | 0 | 0 | 0.0 | 0.0 | 0.00 | 0.00 | 0.00 | 100 | |
| 20260509083929 | 0 | 0 | 0.0 | 0.0 | 0.00 | 0.00 | 0.00 | 100 | |
| 20260509083813 | 0 | 0 | 0.0 | 0.0 | 0.00 | 0.00 | 0.00 | 100 | |
| 20260509082813 | 0 | 0 | 0.0 | 0.0 | 0.00 | 0.00 | 0.00 | 100 | |
| 20260509082714 | 0 | 0 | 0.0 | 0.0 | 0.00 | 0.00 | 0.00 | 100 | |
| 20260509080828 | 0 | 0 | 0.0 | 0.0 | 0.00 | 0.00 | 0.00 | 100 | |
| 20260509075913 | 0 | 0 | 0.0 | 0.0 | 0.00 | 0.00 | 0.00 | 100 | |
| 20260509075815 | 0 | 0 | 0.0 | 0.0 | 0.00 | 0.00 | 0.00 | 100 | |
| 20260509074715 | 0 | 0 | 0.0 | 0.0 | 0.00 | 0.00 | 0.00 | 100 | |
| 20260509073811 | 0 | 0 | 0.0 | 0.0 | 0.00 | 0.00 | 0.00 | 100 | |
| 20260509072830 | 0 | 0 | 0.0 | 0.0 | 0.00 | 0.00 | 0.00 | 100 | |
| 20260509071916 | 0 | 0 | 0.0 | 0.0 | 0.00 | 0.00 | 0.00 | 100 | |
| 20260509070113 | 0 | 0 | 0.0 | 0.0 | 0.00 | 0.00 | 0.00 | 100 | |
| 20260509062214 | 0 | 0 | 0.0 | 0.0 | 0.00 | 0.00 | 0.00 | 100 | |
| 20260509061313 | 0 | 0 | 0.0 | 0.0 | 0.00 | 0.00 | 0.00 | 100 | |
| 20260509061214 | 0 | 0 | 0.0 | 0.0 | 0.00 | 0.00 | 0.00 | 100 | |
| 20260509060312 | 0 | 0 | 0.0 | 0.0 | 0.00 | 0.00 | 0.00 | 100 | |
| 20260509054315 | 0 | 0 | 0.0 | 0.0 | 0.00 | 0.00 | 0.00 | 100 | |
| 20260509054229 | 0 | 0 | 0.0 | 0.0 | 0.00 | 0.00 | 0.00 | 100 | |
| 20260509052313 | 0 | 0 | 0.0 | 0.0 | 0.00 | 0.00 | 0.00 | 100 | |
| 20260509051228 | 0 | 0 | 0.0 | 0.0 | 0.00 | 0.00 | 0.00 | 100 | |
| 20260509050214 | 0 | 0 | 0.0 | 0.0 | 0.00 | 0.00 | 0.00 | 100 | |
| 20260509050131 | 0 | 0 | 0.0 | 0.0 | 0.00 | 0.00 | 0.00 | 100 | |
| 20260509045212 | 0 | 0 | 0.0 | 0.0 | 0.00 | 0.00 | 0.00 | 100 | |
| 20260509044230 | 0 | 0 | 0.0 | 0.0 | 0.00 | 0.00 | 0.00 | 100 | |
| 20260509043316 | 0 | 0 | 0.0 | 0.0 | 0.00 | 0.00 | 0.00 | 100 | |
| 20260509043230 | 0 | 0 | 0.0 | 0.0 | 0.00 | 0.00 | 0.00 | 100 | |
| 20260509042230 | 0 | 0 | 0.0 | 0.0 | 0.00 | 0.00 | 0.00 | 100 | |
| 20260509042130 | 0 | 0 | 0.0 | 0.0 | 0.00 | 0.00 | 0.00 | 100 | |
| 20260509042013 | 0 | 0 | 0.0 | 0.0 | 0.00 | 0.00 | 0.00 | 100 | |
| 20260509041112 | 0 | 0 | 0.0 | 0.0 | 0.00 | 0.00 | 0.00 | 100 | |
| 20260509041030 | 0 | 0 | 0.0 | 0.0 | 0.00 | 0.00 | 0.00 | 100 | |
| 20260509040113 | 0 | 0 | 0.0 | 0.0 | 0.00 | 0.00 | 0.00 | 100 | |
| 20260509035127 | 0 | 0 | 0.0 | 0.0 | 0.00 | 0.00 | 0.00 | 100 | |
| 20260509034142 | 0 | 0 | 0.0 | 0.0 | 0.00 | 0.00 | 0.00 | 100 | |
| 20260509033127 | 0 | 0 | 0.0 | 0.0 | 0.00 | 0.00 | 0.00 | 100 | |
| 20260509032145 | 0 | 0 | 0.0 | 0.0 | 0.00 | 0.00 | 0.00 | 100 | |
| 20260509031227 | 0 | 0 | 0.0 | 0.0 | 0.00 | 0.00 | 0.00 | 100 | |
| 20260509030327 | 0 | 0 | 0.0 | 0.0 | 0.00 | 0.00 | 0.00 | 100 | |
| 20260509025328 | 0 | 0 | 0.0 | 0.0 | 0.00 | 0.00 | 0.00 | 100 | |
| 20260509024327 | 0 | 0 | 0.0 | 0.0 | 0.00 | 0.00 | 0.00 | 100 | |
| 20260509023244 | 0 | 0 | 0.0 | 0.0 | 0.00 | 0.00 | 0.00 | 100 | |
| 20260509021227 | 0 | 0 | 0.0 | 0.0 | 0.00 | 0.00 | 0.00 | 100 | |
| 20260509020227 | 0 | 0 | 0.0 | 0.0 | 0.00 | 0.00 | 0.00 | 100 | |
| 20260509015242 | 0 | 0 | 0.0 | 0.0 | 0.00 | 0.00 | 0.00 | 100 | |
| 20260509014327 | 0 | 0 | 0.0 | 0.0 | 0.00 | 0.00 | 0.00 | 100 | |
| 20260509013325 | 0 | 0 | 0.0 | 0.0 | 0.00 | 0.00 | 0.00 | 100 | |
| 20260509010446 | 0 | 0 | 0.0 | 0.0 | 0.00 | 0.00 | 0.00 | 100 | |
| 20260509005427 | 0 | 0 | 0.0 | 0.0 | 0.00 | 0.00 | 0.00 | 100 | |
| 20260509004428 | 0 | 0 | 0.0 | 0.0 | 0.00 | 0.00 | 0.00 | 100 | |
| 20260509004344 | 0 | 0 | 0.0 | 0.0 | 0.00 | 0.00 | 0.00 | 100 | |
| 20260509003344 | 0 | 0 | 0.0 | 0.0 | 0.00 | 0.00 | 0.00 | 100 | |
| 20260509002426 | 0 | 0 | 0.0 | 0.0 | 0.00 | 0.00 | 0.00 | 100 | |
| 20260509001428 | 0 | 0 | 0.0 | 0.0 | 0.00 | 0.00 | 0.00 | 100 | |
| 20260509001343 | 0 | 0 | 0.0 | 0.0 | 0.00 | 0.00 | 0.00 | 100 | |
| 20260509000426 | 0 | 0 | 0.0 | 0.0 | 0.00 | 0.00 | 0.00 | 100 | |
| 20260509000326 | 0 | 0 | 0.0 | 0.0 | 0.00 | 0.00 | 0.00 | 100 | |
| 20260508235343 | 0 | 0 | 0.0 | 0.0 | 0.00 | 0.00 | 0.00 | 100 | |
| 20260508234342 | 0 | 0 | 0.0 | 0.0 | 0.00 | 0.00 | 0.00 | 100 | |
| 20260508233425 | 0 | 0 | 0.0 | 0.0 | 0.00 | 0.00 | 0.00 | 100 | |
| 20260508232429 | 0 | 0 | 0.0 | 0.0 | 0.00 | 0.00 | 0.00 | 100 | |
| 20260508232349 | 0 | 0 | 0.0 | 0.0 | 0.00 | 0.00 | 0.00 | 100 | |
| 20260508231416 | 56 | 45 | 3.5 | 3.5 | 0.00 | 0.00 | 0.00 | 65 | 1012.4 |
| 20260508230430 | 0 | 0 | 0.0 | 0.0 | 0.00 | 0.00 | 0.00 | 100 | |
| 20260508225530 | 0 | 0 | 0.0 | 0.0 | 0.00 | 0.00 | 0.00 | 100 | |
| 20260508223615 | 0 | 0 | 0.0 | 0.0 | 0.00 | 0.00 | 0.00 | 100 | |
| 20260508222632 | 0 | 0 | 0.0 | 0.0 | 0.00 | 0.00 | 0.00 | 100 | |
| 20260508220730 | 0 | 0 | 0.0 | 0.0 | 0.00 | 0.00 | 0.00 | 100 | |
| 20260508215814 | 0 | 0 | 0.0 | 0.0 | 0.00 | 0.00 | 0.00 | 100 | |
| 20260508215731 | 0 | 0 | 0.0 | 0.0 | 0.00 | 0.00 | 0.00 | 100 | |
| 20260508213715 | 0 | 0 | 0.0 | 0.0 | 0.00 | 0.00 | 0.00 | 100 | |
| 20260508212814 | 0 | 0 | 0.0 | 0.0 | 0.00 | 0.00 | 0.00 | 100 | |
| 20260508211834 | 0 | 0 | 0.0 | 0.0 | 0.00 | 0.00 | 0.00 | 100 | |
| 20260508210931 | 0 | 0 | 0.0 | 0.0 | 0.00 | 0.00 | 0.00 | 100 | |
| 20260508210016 | 0 | 0 | 0.0 | 0.0 | 0.00 | 0.00 | 0.00 | 100 | |
| 20260508205016 | 0 | 0 | 0.0 | 0.0 | 0.00 | 0.00 | 0.00 | 100 | |
| 20260508204933 | 0 | 0 | 0.0 | 0.0 | 0.00 | 0.00 | 0.00 | 100 | |
| 20260508204016 | 56 | 270 | 0.0 | 0.0 | 0.00 | 0.00 | 0.00 | 60 | 1013.1 |
| 20260508203036 | 0 | 0 | 0.0 | 0.0 | 0.00 | 0.00 | 0.00 | 100 | |
| 20260508202030 | 0 | 0 | 0.0 | 0.0 | 0.00 | 0.00 | 0.00 | 100 |